Change the Weather History Date:

Thursday, November 7, 2013

  Actual Average Record
Temperature  
Mean Temperature 40 °F -  
Max Temperature 44 °F 48 °F 71 °F (2008)
Min Temperature 37 °F 33 °F 22 °F (1992)
Degree Days  
Heating Degree Days 24    
Moisture  
Dew Point 31 °F    
Average Humidity 68    
Maximum Humidity 81    
Minimum Humidity 62    
Precipitation  
Precipitation 0.00 in - - ()
Sea Level Pressure  
Sea Level Pressure 30.00 in    
Wind  
Wind Speed 13 mph (West)    
Max Wind Speed 20 mph    
Max Gust Speed 24 mph    
Visibility 10 miles    
Events Rain    
Averages and records for this station are not official NWS values.
T = Trace of Precipitation, MM = Missing Value Source: NWS Daily Summary

Daily Weather History Graph

Daily Weather History Graph

Search for Another Location

Airport or City:

Trip Planner

Search our weather history database for the weather conditions in past years. The results will help you decide how hot, cold, wet, or windy it might be!

Date:

Astronomy

Nov. 07, 2013 Rise Set
Actual Time 6:58 AM EST 4:59 PM EST
Civil Twilight 6:28 AM EST 5:29 PM EST
Nautical Twilight 5:54 AM EST 6:03 PM EST
Astronomical Twilight 5:21 AM EST 6:37 PM EST
Moon 11:07 AM EST (11/7) 9:08 PM EST (11/7)
Length of Visible Light 11h 01m
Length of Day
10h 01m
Waxing Crescent, 22% of the Moon is Illuminated
Nov 7
Waxing Crescent
Nov 10
First Quarter
Nov 17
Full
Nov 25
Last Quarter
Dec 2
New

Hourly Weather History & Observations

Time (EST) Temp. Windchill Dew Point Humidity Pressure Visibility Wind Dir Wind Speed Gust Speed Precip Events Conditions
7:22 AM 41.0 °F 33.9 °F 32.0 °F 70% 29.95 in 10.0 mi NNW 12.7 mph - N/A   Scattered Clouds
7:53 AM 41.0 °F 34.3 °F 35.6 °F 81% 29.96 in 10.0 mi WNW 11.5 mph - N/A   Scattered Clouds
8:53 AM 42.8 °F 36.2 °F 33.8 °F 70% 29.97 in 10.0 mi West 12.7 mph - N/A   Scattered Clouds
9:36 AM 42.8 °F 35.8 °F 32.0 °F 66% 29.98 in 10.0 mi WNW 13.8 mph 24.2 mph N/A   Scattered Clouds
9:53 AM 44.1 °F 36.8 °F 33.1 °F 65% 30.00 in 10.0 mi WNW 16.1 mph - N/A   Scattered Clouds
10:53 AM 44.1 °F 37.1 °F 32.0 °F 63% 30.01 in 10.0 mi West 15.0 mph - N/A   Mostly Cloudy
11:53 AM 42.1 °F 35.2 °F 30.9 °F 65% 30.00 in 10.0 mi NW 12.7 mph - N/A   Mostly Cloudy
12:17 PM 42.8 °F 36.2 °F 33.8 °F 70% 29.98 in 10.0 mi West 12.7 mph - 0.00 in Rain Light Rain
12:53 PM 41.0 °F 34.7 °F 32.0 °F 70% 30.00 in 10.0 mi West 10.4 mph - N/A Rain Light Rain
1:07 PM 41.0 °F 34.7 °F 33.8 °F 76% 29.98 in 10.0 mi West 10.4 mph - 0.00 in   Mostly Cloudy
1:53 PM 43.0 °F 35.4 °F 32.0 °F 65% 29.99 in 10.0 mi WNW 16.1 mph - 0.00 in   Overcast
2:53 PM 42.1 °F 34.2 °F 30.0 °F 62% 29.99 in 10.0 mi West 16.1 mph - N/A   Mostly Cloudy
3:53 PM 42.1 °F 34.9 °F 30.0 °F 62% 29.98 in 10.0 mi West 13.8 mph - N/A   Mostly Cloudy
4:53 PM 41.0 °F 35.2 °F 30.9 °F 67% 29.98 in 10.0 mi West 9.2 mph - N/A   Mostly Cloudy
5:53 PM 39.9 °F 32.5 °F 30.0 °F 68% 30.00 in 10.0 mi WNW 12.7 mph - N/A   Mostly Cloudy
6:53 PM 39.9 °F 32.9 °F 28.9 °F 65% 30.02 in 10.0 mi WNW 11.5 mph 23.0 mph N/A   Overcast
7:53 PM 39.0 °F 30.6 °F 28.0 °F 65% 30.03 in 10.0 mi West 15.0 mph 23.0 mph N/A   Overcast
8:53 PM 37.9 °F 29.2 °F 28.9 °F 70% 30.04 in 10.0 mi West 15.0 mph - N/A   Overcast
9:16 PM 37.4 °F 27.2 °F 28.4 °F 70% 30.01 in 10.0 mi West 19.6 mph - 0.00 in Rain Light Rain
9:53 PM 37.9 °F 28.9 °F 28.9 °F 70% 30.04 in 10.0 mi West 16.1 mph - 0.00 in Rain Light Rain
10:33 PM 37.4 °F 28.5 °F 28.4 °F 70% 30.00 in 10.0 mi West 15.0 mph - 0.00 in   Overcast
10:53 PM 37.9 °F 29.2 °F 28.0 °F 68% 30.02 in 10.0 mi West 15.0 mph - 0.00 in   Overcast
11:53 PM 37.9 °F 30.5 °F 27.0 °F 65% 30.01 in 10.0 mi West 11.5 mph - N/A   Overcast